200 serials | cinema 4d r11.5 demo

Date Name Success Rate
2011-09-08 10:26:11 Cinema 4D Demo 42%
2009-10-22 23:48:14 IDE-Fix 97 Demo 0%
2011-09-08 10:42:01 Dan's Demo-It 1.0c 0%
2011-09-08 10:42:01 Dan's Demo-It v1.0c Win 0%
2011-09-08 10:42:51 Demo 1.1 20%
2011-09-08 11:13:48 IDE-Fix 97 Demo 0%
2012-12-12 03:59:46 Bf2 Demo 0%
2009-10-22 23:27:17 Al Moazen Demo 0%
2009-10-22 23:48:59 Nero 8 DEMO 20%
2009-10-22 23:49:41 Realbasic Demo 0%
2009-10-22 23:50:03 Swat 4 MP Demo 1.0 0%
2009-10-22 23:50:34 WebTransporter Demo 0%
2011-09-08 10:02:58 Al Moazen Demo 0%
2011-09-08 10:24:46 CD Wizzard Demo from VOB 0%
2011-09-08 10:33:00 CuSeeMe v2.1.1 Demo 0%
2011-09-08 10:42:01 Dan's Demo-It for Windows v1.0c 0%
2011-09-08 10:42:01 Dan's Demo-It v1.0c for Windows 0%
2011-09-08 10:42:01 Dan's Demo-It v1.0c forWindows 0%
2011-09-08 10:42:03 Dans Demo-It v1.0c 0%
2011-09-08 10:42:51 Demo Builder v2.0.07 0%
2011-09-08 10:42:51 Demo Maker +v1.55 0%
2011-09-08 10:42:51 Demo Maker 2.0 0%
2011-09-08 10:42:51 Demo Maker v2.0 0%
2011-09-08 10:42:51 Demo Maker v2.0 2 0%
2011-09-08 10:42:51 Demo Maker v2.0 3 0%
2011-09-08 10:42:51 Demo Maker v2.0 4 0%
2011-09-08 10:42:53 Demo Maker v20 0%
2011-09-08 10:42:53 Demo maker vx.x 0%
2011-09-08 10:42:53 Demo Maker x.x 0%
2011-09-08 10:42:53 Demo Slider 2.0 0%
2011-09-08 10:42:53 Demo Slider v2.0 100%
2011-09-08 10:42:53 Demo Slider v2.0 by TNT 73%
2011-09-08 10:42:53 Demo Workshop 0%
2011-09-08 12:40:45 Realbasic demo 0%
2011-09-08 13:00:29 Swat 4 MP demo 1 0%
2011-09-08 13:23:30 zbrush (demo) 1.55b 80%
2012-12-12 18:27:57 Makeme3d demo 0%
2009-10-22 23:44:51 BPM-Studio Demo Version4.9.6.1 0%
2009-10-22 23:46:25 Deadly Shadows Demo 0%
2009-10-22 23:48:45 Macromedia Robo Demo 0%
2009-10-22 23:48:50 MojoWorld 3 Demo Version 0%
2009-10-22 23:49:52 Screen Demo Maker 3.0 0%
2009-10-22 23:50:34 WildForm Wild Fx Demo 3.029 100%
2011-09-08 10:42:51 Demo Maker +v155 0%
2011-09-08 10:42:53 Demo Workshop name: Okware 0%
2011-09-08 10:44:26 Dogs of War DEMO - Version 0%
2011-09-08 11:33:22 MojoWorld 3 Demo Version 0%
2011-09-08 12:37:02 Quant Tracer 4 Demo 0%
2011-09-08 12:37:02 Quant Tracer Demo 4.0 0%
2011-09-08 12:45:49 Screen Demo Maker 3.0 0%
2011-09-08 12:58:59 StormWindows v4.5 Demo License 61%
2009-10-22 23:45:55 Contract Jack Multiplayer Demo 0%
2009-10-22 23:45:56 Crocodile Physics 1.7 Standard Demo 1.7 100%
2009-10-22 23:46:26 Demo Builder V5 Retail Fix After Disabled 51%
2009-10-22 23:48:07 HI-TECH PICC-18 Compiler V8.35 PL1 Demo 60%
2009-10-22 23:48:16 IncrediTools Flash Demo Builder V1.2 0%
2009-10-22 23:48:16 IncrediTools Flash Demo Builder V2.0 93%
2011-09-08 10:28:45 Contract Jack Multiplayer demo 0%
2011-09-08 10:32:10 Crocodile Physics 1.7 Standard Demo 1.7 60%
2011-09-08 10:32:10 Crocodile Physics v1.7 Standard Demo 0%
2011-09-08 10:42:53 Demo maker vx.x edit DEMOMAKE.KEY 80%
2011-09-08 11:06:46 HI-TECH PICC-18 Compiler v8.35 PL1 Demo 0%
2011-09-08 11:22:00 KoolMoves Flash Editor v4.7.0 Demo 0%
2009-10-17 06:25:11 IncrediTools Flash Demo Builder V1.2-ROGUE 28%
2009-10-22 23:48:49 Microsoft Office Pro 2007 60Tage Demo 0%
2011-09-08 11:31:23 Microsoft Front Page 2002 Demo 0%
2012-12-12 07:18:31 DDR-PenDrive Recovery(demo) 4.0.1.6+crack, serial, keygen, 67%
2009-10-22 23:45:52 Cinema $D XL RD 20%
2009-10-22 23:45:52 Cinema 10 Pc/mac 0%
2009-10-22 23:45:52 Cinema 4D 67%
2009-10-22 23:45:52 Cinema 4D 11 0%
2009-10-22 23:45:52 Cinema 4D 9.0 0%
2009-10-22 23:45:52 Cinema 4d 9.5 0%
2009-10-22 23:45:52 Cinema 4D CE 6.0 0%
2009-10-22 23:45:52 Cinema 4D R10 0%
2009-10-22 23:45:52 Cinema 4d R9 XL 9.012 0%
2009-10-22 23:45:52 Cinema 4D V8 0%
2009-10-22 23:48:51 Mon Cinema 3.2 0%
2009-10-22 23:48:51 Mon Cinema 3.2 Fr 0%
2011-09-08 10:26:11 CINEMA 4 D 9.012 0%
2011-09-08 10:26:11 cinema 4 d xl7 0%
2011-09-08 10:26:11 Cinema 4D 11%
2011-09-08 10:26:11 Cinema 4D 9 0%
2011-09-08 10:26:11 Cinema 4D 9.5 0%
2011-09-08 10:26:11 Cinema 4d 9.507 0%
2011-09-08 10:26:11 Cinema 4D CE 6 0%
2011-09-08 10:26:11 Cinema 4D Go 5.2.2 0%
2011-09-08 10:26:11 Cinema 4D Go v5.2.2 0%
2011-09-08 10:26:11 Cinema 4D Net 0%
2011-09-08 10:26:11 Cinema 4D Net 5.2.9 0%
2011-09-08 10:26:11 Cinema 4D Net 6.0 0%
2011-09-08 10:26:11 Cinema 4D Net 6.302 0%
2011-09-08 10:26:11 Cinema 4D Net v5.2.9 0%
2011-09-08 10:26:11 Cinema 4D Net v6.0 0%
2011-09-08 10:26:11 Cinema 4D Net v6.302 0%
2011-09-08 10:26:11 Cinema 4D R9 0%
2011-09-08 10:26:11 Cinema 4d R9 XL 9.012 72%
2011-09-08 10:26:11 Cinema 4d R9 XL v9.012 0%
2011-09-08 10:26:11 Cinema 4D v4.1.1 0%
2011-09-08 10:26:11 Cinema 4d v7.3 0%
2011-09-08 10:26:11 Cinema 4D v8.207 0%
2011-09-08 10:26:11 CINEMA 4D XL 5.0.1 0%
2011-09-08 10:26:11 CINEMA 4D XL 5.21 0%
2011-09-08 10:26:11 CINEMA 4D XL 5.27 0%
2011-09-08 10:26:11 CINEMA 4D XL 5.29 0%
2011-09-08 10:26:11 CINEMA 4D XL 5.3 0%
2011-09-08 10:26:11 CINEMA 4D XL 5.x 0%
2011-09-08 10:26:11 CINEMA 4D XL 6.0 0%
2011-09-08 10:26:11 CINEMA 4D XL 6.1.0.3 0%
2011-09-08 10:26:11 CINEMA 4D XL 6.3 0%
2011-09-08 10:26:11 CINEMA 4D XL 7 0%
2011-09-08 10:26:11 CINEMA 4D XL v5.0.1 0%
2011-09-08 10:26:11 CINEMA 4D XL v5.21 0%
2011-09-08 10:26:14 CINEMA 4D XL v5.27 0%
2011-09-08 10:26:14 CINEMA 4D XL v5.29 0%
2011-09-08 10:26:14 CINEMA 4D XL v5.3 0%
2011-09-08 10:26:14 CINEMA 4D XL v5.x 0%
2011-09-08 10:26:14 CINEMA 4D XL v6.0 0%
2011-09-08 10:26:14 CINEMA 4D XL v6.1 0%
2011-09-08 10:26:14 CINEMA 4D XL v6.1.0.3 0%
2011-09-08 10:26:14 CINEMA 4D XL v6.3 0%
2011-09-08 10:26:14 CINEMA 4D XL v7.1 0%
2011-09-08 10:26:14 Cinema 4D XL v7.3 0%
2011-09-08 10:26:14 Cinema R9 0%
2011-09-08 11:33:26 Mon Cinema 3.2 0%
2011-09-08 11:33:26 Mon Cinema 3.2 fr 0%
2011-09-08 11:33:26 Mon Cinema v3.2 by FFF 0%
2011-09-08 13:17:21 Win Cinema 0%
2012-12-12 05:52:47 Cinema 4D R 12 0%
2012-12-12 05:53:00 Cinema 4D R11.5 0%
2012-12-12 05:53:00 Cinema 4D R12 25%
2012-12-12 05:53:00 Cinema 4D R13 50%
2009-10-22 23:45:52 CINEMA 4 D CE Release 6 0%
2009-10-22 23:45:52 Cinema 4D ALL SERIALS 64%
2009-10-22 23:45:52 Cinema 4D Bundle V10.0 0%
2009-10-22 23:45:52 Cinema 4d Dynamics 0%
2009-10-22 23:45:52 Cinema 4d Hair 0%
2009-10-22 23:45:52 Cinema 4d MOCCA 60%
2009-10-22 23:45:52 Cinema 4d Net Renderer (PC) 0%
2009-10-22 23:45:52 Cinema 4D R10 Hair 100%
2009-10-22 23:45:52 Cinema 4D R10 Net Render 71%
2009-10-22 23:45:52 Cinema 4D Release 8 52%
2009-10-22 23:48:47 Maxon Cinema 4D 4.0 0%
2009-10-22 23:48:47 MAXON Cinema 4D 8.2 0%
2009-10-22 23:48:47 Maxon Cinema 4D R9.012 0%
2009-10-22 23:48:47 Maxon Cinema 7.303 0%
2009-10-22 23:49:25 Power Cinema 4 0%
2011-09-08 10:26:11 CINEMA 4 D CE release 6 0%
2011-09-08 10:26:11 Cinema 4D BodyPaint 3D 9.5 80%
2011-09-08 10:26:11 Cinema 4D Dynamics 9.5 0%
2011-09-08 10:26:11 Cinema 4D MOCCA 9.5 0%
2011-09-08 10:26:11 Cinema 4D PyroCluster 9.5 0%
2011-09-08 10:26:11 Cinema 4d release 8 0%
2011-09-08 10:26:11 CINEMA 4D RELEASE 9 54%
2011-09-08 10:26:11 CINEMA 4D XL 6.3 German 0%
2011-09-08 10:26:11 Cinema 4D XL 8.2 Studio 0%
2011-09-08 10:26:11 Cinema 4d XL 8.5 upgrad 0%
2011-09-08 10:26:14 CINEMA 4D XL v6.3 German 0%
2011-09-08 11:29:56 Maxon Cinema 4D 9.507 0%
2011-09-08 11:29:56 Maxon Cinema 4D NET 7.1 0%
2011-09-08 11:29:56 Maxon Cinema 4D NET v7.1 0%
2011-09-08 11:29:56 Maxon Cinema 4D NET v7.2 0%
2011-09-08 11:29:56 Maxon Cinema 4D R9 65%
2011-09-08 11:29:56 Maxon Cinema 4D XL 8.5 0%
2011-09-08 11:29:56 Maxon Cinema 4D XL v8.5 0%
2011-09-08 11:29:56 Maxon Cinema 7.303 0%
2011-09-08 11:29:56 Maxon Cinema v7.303 0%
2011-09-08 11:33:26 Mon Cinema v3.2 French by FFF 0%
2011-09-08 12:35:34 Power Cinema 3.0 0%
2011-09-08 12:35:34 power cinema 4.0 0%
2011-09-08 12:35:34 Power Cinema v3.0 0%
2011-09-08 12:46:46 Sensible Cinema Box Office 1.0.720 0%
2012-12-12 05:53:00 Cinema 4D r12 all serials 100%
2012-12-12 18:44:37 Maxon Cinema 4D r11.5 0%
2009-10-17 06:19:32 BodyStudio For Cinema 4D V2.6.0.6-REiSS 7%
2009-10-22 23:45:52 Cinema 4d 9.6 Production Bundle 0%
2009-10-22 23:45:52 Cinema 4d Advanced Render 55%
2009-10-22 23:45:52 Cinema 4D R10 Advanced Render 47%
2009-10-22 23:45:52 Cinema 4d R10 Sketch And Toon 54%
2009-10-22 23:45:52 Cinema 4d R10 Thinking Particles 73%
2009-10-22 23:45:52 Cinema 4d Release 9 XL-Bundle 63%
2009-10-22 23:45:52 Cinema 4d Sketch & Toon 0%
2009-10-22 23:45:52 Cinema 4d Thinking Particles 0%
2009-10-22 23:45:52 Cinema Craft Encoder 2.26 0%
2009-10-22 23:45:57 Cyberlink Power Cinema 4.0 0%
2009-10-22 23:45:57 Cyberlink Power Cinema 6 44%
2009-10-22 23:45:57 CyberLink Power Cinema V.2.0 0%
2009-10-22 23:45:57 Cyberlink Power Cinema V2.0 0%
2009-10-22 23:45:57 Cyberlink Power Cinema V3.0 0%
2009-10-22 23:48:47 Maxon Cinema 4D Bundle 0%
2009-10-22 23:48:48 Medion Home Cinema XL II 0%
2009-10-22 23:48:48 Medion Power Cinema 0%
2009-10-22 23:49:25 Power Cinema 5 (Original) 0%
2011-09-08 10:20:41 BodyPaint 3D 6.302 with CINEMA 4D XL Multilingual 0%
2011-09-08 10:20:41 BodyPaint 3D v6.302 with CINEMA 4D XL Multil 0%
2011-09-08 10:20:41 BodyPaint 3D v6.302 with CINEMA 4D XL Multilingual 0%
2011-09-08 10:25:11 Cebas PyroCluster 1.8 for Cinema 4D XL 0%
2011-09-08 10:25:11 Cebas PyroCluster v1.8 for Cinema 4D XL 0%
2011-09-08 10:26:11 Cinema 4D 9.5 Studio Bundle 0%
2011-09-08 10:26:11 Cinema 4D Advanced Render 9.5 0%